This demonstration page uses our WeatherBlox Daily Observations layout. Learn more.

39.08367, -84.50855

Hourly Observations for October 19, 2019

Temp ( °F °C ) Dew Point ( °F °C ) Humidity (%) Winds ( mph kmh ) Pressure ( in mb ) Visibility ( mi km ) Precip ( " mm )
12:46 am 00:46 Clear with Mist and Fog 40 4.4 39 3.9 97 97 Calm 30.03 1017 2.5 4.02335 0 0
12:53 am 00:53 Clear 39 3.9 39 3.9 100 100 Calm 30.01 1016 10 16.0934 0 0
1:53 am 01:53 Clear with Mist and Fog 38 3.3 37 2.8 97 97 Calm 30.01 1016 4 6.43736 0 0
2:53 am 02:53 Clear 37 2.8 35 1.7 93 93 Calm 30.01 1016 10 16.0934 0 0
3:38 am 03:38 Partly Cloudy with Mist and Fog 38 3.3 37 2.8 97 97 Calm 30.02 1017 5 8.0467 0 0
3:40 am 03:40 Mostly Cloudy with Mist and Fog 38 3.3 37 2.8 97 97 Calm 30.02 1017 1.25 2.011675 0 0
3:53 am 03:53 Mostly Cloudy with Mist and Fog 38 3.3 38 3.3 100 100 Calm 30 1016 1 1.60934 0 0
4:06 am 04:06 Mostly Cloudy with Fog 37 2.8 37 2.8 100 100 Calm 30.02 1017 0.5 0.80467 0 0
4:18 am 04:18 Mostly Cloudy with Fog 37 2.8 37 2.8 100 100 Calm 30.02 1017 0.25 0.402335 0 0
4:53 am 04:53 Mostly Cloudy with Fog 37 2.8 37 2.8 100 100 NE 3 6 29.99 1016 0.25 0.402335 0 0
5:02 am 05:02 Mostly Cloudy with Mist and Fog 37 2.8 37 2.8 100 100 Calm 30.02 1017 1 1.60934 0 0
5:34 am 05:34 Mostly Cloudy with Fog 36 2.2 35 1.7 97 97 Calm 30.02 1017 0.5 0.80467 0 0
5:49 am 05:49 Mostly Clear with Mist and Fog 36 2 36 2 100 100 Calm 30.02 1017 1.25 2.011675 0 0
5:53 am 05:53 Mostly Clear with Mist and Fog 36 2.2 35 1.7 97 97 Calm 30 1016 1.75 2.816345 0 0
5:56 am 05:56 Clear with Mist and Fog 36 2.2 36 2.2 100 100 Calm 30.02 1017 3 4.82802 0 0
6:29 am 06:29 Mostly Clear 35 1.7 35 1.7 100 100 Calm 30.02 1017 9 14.48406 0 0
6:39 am 06:39 Mostly Clear with Mist and Fog 35 1.7 35 1.7 100 100 Calm 30.02 1017 1.5 2.41401 0 0
6:53 am 06:53 Mostly Clear with Mist and Fog 35 1.7 34 1.1 96 96 Calm 30 1016 1.5 2.41401 0 0
7:00 am 07:00 Mostly Clear with Mist and Fog 34 1.1 34 1.1 100 100 Calm 30.02 1016 3 4.82802 0 0
7:53 am 07:53 Partly Cloudy with Mist and Fog 34 1.1 34 1.1 100 100 Calm 29.99 1016 3 4.82802 0 0
7:56 am 07:56 Sunny with Fog 34 1.1 34 1.1 100 100 Calm 30.02 1016 0.25 0.402335 0 0
8:07 am 08:07 Partly Cloudy with Mist and Fog 34 1.1 34 1.1 100 100 Calm 30.02 1016 2 3.21868 0 0
8:53 am 08:53 Partly Cloudy with Mist and Fog 36 2.2 36 2.2 100 100 NNE 3 6 30 1016 2 3.21868 0 0
9:42 am 09:42 Partly Cloudy with Mist and Fog 43 6.1 43 6.1 100 100 Calm 30.02 1016 6 9.65604 0 0
9:53 am 09:53 Partly Cloudy with Mist and Fog 44 6.7 43 6.1 96 96 Calm 30.01 1016 6 9.65604 0 0
10:53 am 10:53 Sunny 51 10.6 46 7.8 83 83 Calm 29.99 1016 10 16.0934 0 0
11:53 am 11:53 Sunny 58 14.4 45 7.2 62 62 SE 3 6 29.97 1015 10 16.0934 0 0
12:53 pm 12:53 Sunny 64 17.8 46 7.8 52 52 S 5 7 29.94 1014 10 16.0934 0 0
1:53 pm 13:53 Sunny 67 19.4 45 7.2 45 45 S 6 9 29.9 1013 10 16.0934 0 0
2:53 pm 14:53 Sunny 70 21.1 44 6.7 39 39 VRB 6 9 29.88 1012 10 16.0934 0 0
3:53 pm 15:53 Sunny 70 21.1 45 7.2 41 41 VRB 6 9 29.85 1011 10 16.0934 0 0
4:53 pm 16:53 Sunny 71 21.7 45 7.2 39 39 SE 7 11 29.83 1010 10 16.0934 0 0
5:53 pm 17:53 Sunny 69 20.6 45 7.2 42 42 ESE 5 7 29.82 1010 10 16.0934 0 0
6:53 pm 18:53 Sunny 60 15.6 50 10 70 70 E 3 6 29.82 1010 10 16.0934 0 0
7:53 pm 19:53 Clear 55 12.8 49 9.4 80 80 Calm 29.83 1010 10 16.0934 0 0
8:53 pm 20:53 Clear 52 11.1 47 8.3 83 83 Calm 29.83 1010 10 16.0934 0 0
9:53 pm 21:53 Clear 50 10 48 8.9 93 93 Calm 29.83 1010 10 16.0934 0 0
10:53 pm 22:53 Clear 51 10.6 49 9.4 92 92 Calm 29.84 1011 10 16.0934 0 0
11:53 pm 23:53 Partly Cloudy 52 11.1 50 10 93 93 Calm 29.84 1010 10 16.0934 0 0

Powered by AerisWeather